パンスターズ彗星

C/2017 S3 ( PanSTARRS )

English version
Home page
Updated on August 7, 2018

---------------------------------------------------------------------

・ プロフィール

発見日 2017年9月23日
発見光度 21.5等
発見者 Pan-STARRS 1 telescope (Haleakala)

・ 写真集

・ 軌道要素

Epoch 2018 Aug. 30.0 TT = JDT 2458360.5
T 2018 Aug. 15.94470 TT                                 MPCW
q   0.2084538            (2000.0)            P               Q
z  -0.0004259      Peri.  255.88986     +0.21708526     -0.96396021
 +/-0.0000042      Node   171.04060     +0.20807535     +0.19963280
e   1.0000888      Incl.   99.03829     -0.95371832     -0.17586207
From 116 observations 2017 Aug. 17-2018 May 21, mean residual 0".4.

・ 星図

・ 光度変化

        m1 = 10.0 + 5 logΔ + 10.0 log r

---------------------------------------------------------------------

軌道要素はM.P.E.C. 2018-K95に掲載されたものです。
星図はステラナビゲータ Ver.10 (アストロアーツ) で作成したものです。
光度グラフはComet for Windowsで作成したものです。

---------------------------------------------------------------------

Copyright(C) Seiichi Yoshida (comet@aerith.net). All rights reserved.